Location: Sternwarte_Laufen
(47.9344°N, 12.9346°E)
Time: 07:44:11
(UTC+02:00)

OTV 5 (USA 277) - Visible Passes

Search period start: 24 September 2018 00:00
Search period end: 04 October 2018 00:00
Orbit: 387 x 394 km, 54.5° (Epoch: 08 September)

Date Brightness Start Highest point End Pass type
(mag) Time Alt. Az. Time Alt. Az. Time Alt. Az.
27 Sep ? 06:11:18 10° SSW 06:13:57 24° SE 06:16:35 10° E visible
28 Sep ? 05:16:30 10° SSE 05:17:51 12° SE 05:19:13 10° ESE visible
29 Sep ? 05:54:17 12° SSW 05:57:01 41° SE 06:00:03 10° ENE visible
30 Sep ? 05:00:26 21° SE 05:00:49 21° SE 05:03:20 10° E visible
01 Oct ? 05:38:54 34° SW 05:40:08 73° SE 05:43:21 10° ENE visible
02 Oct ? 04:44:52 28° E 04:44:52 28° E 04:46:51 10° ENE visible
02 Oct ? 06:17:15 14° W 06:19:46 41° NNW 06:22:51 10° NE visible
03 Oct ? 05:23:09 66° NW 05:23:19 68° NNW 05:26:32 10° NE visible
